Abha, Saudi Arabia

9:20 PM +03 on September 20, 2019 (GMT +0300)
Abha

Weather History for OEAB - May, 2019

Change the Weather History Date:

Wednesday, May 29, 2019

  Actual Average Record
Temperature  
Mean Temperature 75 °F -  
Max Temperature 86 °F 84 °F 89 °F (2008)
Min Temperature 64 °F 61 °F 59 °F (1997)
Cooling Degree Days 10    
Growing Degree Days 25 (Base 50)    
Moisture  
Dew Point 46 °F    
Average Humidity 42    
Maximum Humidity 73    
Minimum Humidity 9    
Precipitation  
Precipitation 0.00 in - - ()
Sea Level Pressure  
Sea Level Pressure 30.23 in    
Wind  
Wind Speed 3 mph ()    
Max Wind Speed 8 mph    
Max Gust Speed -    
Visibility 6.2 miles    
Events      
Averages and records for this station are not official NWS values.
T = Trace of Precipitation, MM = Missing Value Source: Averaged Metar Reports

Daily Weather History Graph

Daily Weather History Graph

Search for Another Location

Airport or City:

Astronomy

May. 29, 2019 Rise Set
Actual Time 5:33 AM +03 6:40 PM +03
Civil Twilight 5:09 AM +03 7:04 PM +03
Nautical Twilight 4:40 AM +03 7:32 PM +03
Astronomical Twilight 4:12 AM +03 8:01 PM +03
Moon 2:05 AM +03 (5/29) 2:19 PM +03 (5/29)
Length of Visible Light 13h 55m
Length of Day
13h 07m
Waning Crescent, 25% of the Moon is Illuminated
May 29
Waning Crescent
Jun 3
New
Jun 10
First Quarter
Jun 17
Full
Jun 25
Last Quarter

Hourly Weather History & Observations

Time (+03) Temp. Dew Point Humidity Pressure Visibility Wind Dir Wind Speed Gust Speed Precip Events Conditions
1:00 AM 66.2 °F 51.8 °F 60% 30.24 in 6.2 mi Calm Calm - N/A   Partly Cloudy
3:00 AM 64.4 °F 55.4 °F 73% 30.21 in 6.2 mi Calm Calm - N/A   Partly Cloudy
4:00 AM 66.2 °F 53.6 °F 64% 30.21 in 6.2 mi West 5.8 mph - N/A   Partly Cloudy
5:00 AM 66.2 °F 51.8 °F 60% 30.21 in 6.2 mi Calm Calm - N/A   Partly Cloudy
6:00 AM 66.2 °F 48.2 °F 52% 30.24 in 6.2 mi Calm Calm - N/A   Mostly Cloudy
7:00 AM 66.2 °F 51.8 °F 60% 30.27 in 6.2 mi Calm Calm - N/A   Mostly Cloudy
8:00 AM 68.0 °F 50.0 °F 52% 30.27 in 6.2 mi NNW 4.6 mph - N/A   Mostly Cloudy
9:00 AM 72 °F 46 °F 29%  in 6 mi Calm Calm - -   Scattered Clouds
10:00 AM 80.6 °F 44.6 °F 28% 30.30 in 6.2 mi NNE 4.6 mph - N/A   Partly Cloudy
11:00 AM 82.4 °F 42.8 °F 25% 30.27 in 6.2 mi NNW 5.8 mph - N/A   Scattered Clouds
12:00 PM 82.4 °F 37.4 °F 20% 30.27 in 6.2 mi East 6.9 mph - N/A   Scattered Clouds
1:00 PM 82.4 °F 33.8 °F 17% 30.24 in 6.2 mi NNW 8.1 mph - N/A   Scattered Clouds
2:00 PM 86.0 °F 33.8 °F 15% 30.21 in 6.2 mi NNE 5.8 mph - N/A   Scattered Clouds
3:00 PM 82 °F 34 °F 9%  in 6 mi NE 8.1 mph - -   Partly Cloudy
3:00 PM 82.4 °F 33.8 °F 17% 30.18 in 6.2 mi NE 8.1 mph - N/A   Scattered Clouds
4:00 PM 82.4 °F 33.8 °F 17% 30.18 in 6.2 mi NNE 4.6 mph - N/A   Scattered Clouds
6:00 PM 82.4 °F 33.8 °F 17% 30.18 in 6.2 mi NNE 6.9 mph - N/A   Scattered Clouds
7:00 PM 77.0 °F 33.8 °F 21% 30.21 in 6.2 mi ENE 5.8 mph - N/A   Scattered Clouds
8:00 PM 71.6 °F 60.8 °F 69% 30.21 in 6.2 mi WSW 5.8 mph - N/A   Partly Cloudy
9:00 PM 71.6 °F 60.8 °F 69% 30.24 in 6.2 mi SSW 4.6 mph - N/A   Partly Cloudy
10:00 PM 68.0 °F 59.0 °F 73% 30.24 in - South 8.1 mph - N/A   Clear
11:00 PM 68.0 °F 59.0 °F 73% 30.27 in - Calm Calm - N/A   Clear